Location: Unspecified
(0.0000°N, 0.0000°E)
Time: 04:31:09
(UTC+00:00)

deb Midas IV - Pass Details

Date: 15 October 2024
Orbit: 3517 x 3765 km, 95.9° (Epoch: 09 November)

Event Time Altitude Azimuth Distance (km) Brightness Sun altitude
Rises 01:59:06 0° 153° (SSE) 7,581 ? -55.7°
Reaches altitude 10° 02:03:44 10° 146° (SSE) 6,558 ? -54.6°
Maximum altitude 02:20:33 46° 77° (ENE) 4,320 ? -50.5°
Drops below altitude 10° 02:37:32 10° 9° (N) 6,717 ? -46.4°
Sets 02:42:12 0° 4° (N) 7,776 ? -45.2°
